Hourly Data Report for September 17, 2017

All times are specified in Local Standard Time (LST). Add 1 hour to adjust for Daylight Saving Time where and when it is observed.

TORONTO INTL A
ONTARIO

43°40'36.000" N
79°37'50.000" W
173.40 m
6158731
71624
YYZ

Download Data

Hourly Data (September 2017)
Hourly Data Report for September 17, 2017
Temp Definition
°C
Dew Point Temp Definition
°C
Rel Hum Definition
%
Wind Dir Definition
10's deg

Wind Spd Definition
km/h
Visibility Definition
km
Stn Press Definition
kPa
Hmdx Definition


Wind Chill Definition


Weather Definition


TIME
00:00 Legend Double Dagger 19.3 15.7 79 11 5 24.1 100.00     LegendNANA
01:00 Legend Double Dagger 18.6 15.4 82 36 3 24.1 99.98     Clear
02:00 Legend Double Dagger 18.2 15.3 83 31 4 24.1 100.00     LegendNANA
03:00 Legend Double Dagger 17.3 14.9 86 34 7 24.1 100.02     LegendNANA
04:00 Legend Double Dagger 16.5 14.2 86 1 9 24.1 99.98     Clear
05:00 Legend Double Dagger 17.0 14.6 85 34 5 24.1 99.97     LegendNANA
06:00 Legend Double Dagger 15.9 13.8 87 2 4 20.9 100.02     LegendNANA
07:00 Legend Double Dagger 17.0 14.7 86 31 4 16.1 100.06     Clear
08:00 Legend Double Dagger 18.9 15.4 80 36 3 16.1 100.04     LegendNANA
09:00 Legend Double Dagger 21.0 17.2 78 17 5 16.1 100.03 26   LegendNANA
10:00 Legend Double Dagger 22.1 17.8 76 18 10 19.3 100.03 28   Clear
11:00 Legend Double Dagger 24.4 18.3 68 14 9 24.1 100.01 31   LegendNANA
12:00 Legend Double Dagger 24.9 17.9 64 13 11 24.1 99.95 31   LegendNANA
13:00 Legend Double Dagger 26.2 16.7 55 16 12 24.1 99.88 31   Clear
14:00 Legend Double Dagger 26.1 16.9 56 13 18 24.1 99.83 31   LegendNANA
15:00 Legend Double Dagger 26.1 16.9 56 15 13 24.1 99.79 31   LegendNANA
16:00 Legend Double Dagger 26.0 16.5 55 13 14 24.1 99.77 31   Mainly Clear
17:00 Legend Double Dagger 24.1 16.9 64 15 16 24.1 99.73 29   LegendNANA
18:00 Legend Double Dagger 22.3 17.2 73 16 10 24.1 99.73 28   LegendNANA
19:00 Legend Double Dagger 21.1 17.1 78 14 14 24.1 99.76 26   Mainly Clear
20:00 Legend Double Dagger 20.7 17.7 83 14 10 24.1 99.80 26   LegendNANA
21:00 Legend Double Dagger 20.3 18.1 87 14 7 24.1 99.82 26   LegendNANA
22:00 Legend Double Dagger 20.2 18.0 87 36 3 24.1 99.84 26   Clear
23:00 Legend Double Dagger 19.9 17.9 89 11 7 24.1 99.81     LegendNANA

Notes on Data Quality.

Legend

  • E = Estimated
  • M = Missing
  • NA = Not Available
  • ‡ = Partner data that is not subject to review by the National Climate Archives
Date modified: